Home   Weather   Bristol   Past weeks

Flag for USA Past Weather in Bristol, Tennessee, USA — Yesterday and Last 2 Weeks

Now
58 °F

Low clouds.


Feels Like: 56 °F
Forecast: 55 / 71 °F
Wind: 7 mph from Northwest

Location: Abingdon-Southwest Abingdon

Current Time: Sep 30, 2016 at 11:25:00 AM

Latest Report: Sep 30, 2016 at 10:55 AM


Visibility: 7 mi

Pressure: 30.05 "Hg (28.28 "Hg at 510m altitude)

Humidity: 99%

Dew Point: 57 °F

Location of BristolLocation

Past Weather in Bristol — Graph

°F

Bristol Temperature Yesterday

Maximum temperature yesterday: 72 °F (at 12:55 PM)
Minimum temperature yesterday: 56 °F (at 6:55 AM)
Average temperature yesterday: 61 °F

High & Low Weather Summary for the Past Weeks

 TemperatureHumidityPressure
High90 °F (Sep 15, 4:15 PM)100% (Sep 18, 8:35 PM)30.26 "Hg (Sep 18, 8:35 PM)
Low55 °F (Sep 28, 6:15 AM)25% (Sep 15, 3:35 PM)29.92 "Hg (Sep 28, 3:55 PM)
Average71 °F74%30.12 "Hg
* Reported Sep 15 10:15 AM — Sep 30 10:15 AM, Bristol, Weather by CustomWeather, © 2016

Note: Actual official high and low records may vary slightly from our data, if they occured in-between our weather recording intervals... More about our weather records

Advertising

Bristol Weather History for the Previous 24 Hours

Scroll right to see more
 ConditionsComfort  
Time TempWeatherWind HumidityBarometerVisibility
10:15 AM
Fri, Sep 30
58 °FFog.No wind100%30.05 "Hg5 mi
9:55 AM57 °FFog.5 mph100%30.05 "Hg2 mi
9:35 AM57 °FFog.5 mph100%30.04 "Hg1 mi
9:15 AM57 °FFog.No wind100%30.04 "Hg1 mi
8:55 AM57 °FFog.No wind99%30.03 "Hg1 mi
8:15 AM57 °FFog.3 mph100%30.02 "Hg5 mi
7:55 AM57 °FFog.3 mph99%30.02 "Hg5 mi
7:15 AM57 °FLow clouds.No wind100%30.02 "Hg10 mi
6:55 AM57 °FLow clouds.3 mph99%30.02 "Hg10 mi
6:15 AM57 °FLow clouds.No wind99%30.01 "Hg10 mi
5:55 AM57 °FLow clouds.No wind100%30.01 "Hg10 mi
5:35 AM58 °FMostly cloudy.No wind99%30.01 "Hg10 mi
5:15 AM58 °FMostly cloudy.No wind99%30.02 "Hg10 mi
4:55 AM58 °FRain. Mostly cloudy.3 mph99%30.02 "Hg10 mi
4:35 AM57 °FLow clouds.3 mph98%30.01 "Hg10 mi
4:15 AM57 °FMostly cloudy.3 mph98%30.02 "Hg10 mi
3:55 AM57 °FMostly cloudy.No wind98%30.02 "Hg10 mi
3:35 AM57 °FLight rain. Overcast.No wind98%30.03 "Hg10 mi
3:15 AM57 °FLight rain. Mostly cloudy.No wind97%30.04 "Hg10 mi
2:55 AM57 °FLight rain. Mostly cloudy.No wind98%30.04 "Hg10 mi
2:35 AM57 °FMostly cloudy.No wind98%30.05 "Hg10 mi
2:15 AM57 °FMostly cloudy.No wind98%30.05 "Hg10 mi
1:55 AM58 °FOvercast.No wind98%30.05 "Hg10 mi
1:35 AM57 °FOvercast.No wind98%30.06 "Hg10 mi
1:15 AM57 °FMostly cloudy.No wind97%30.05 "Hg10 mi
12:55 AM57 °FMostly cloudy.No wind98%30.07 "Hg10 mi
12:35 AM57 °FMostly cloudy.No wind98%30.06 "Hg10 mi
12:15 AM58 °FMostly cloudy.3 mph99%30.07 "Hg10 mi
11:55 PM
Thu, Sep 29
58 °FMostly cloudy.No wind97%30.08 "Hg10 mi
11:35 PM57 °FOvercast.No wind95%30.09 "Hg10 mi
11:15 PM57 °FOvercast.No wind95%30.09 "Hg10 mi
10:55 PM57 °FMostly cloudy.3 mph94%30.08 "Hg10 mi
10:15 PM57 °FMostly cloudy.No wind94%30.09 "Hg10 mi
9:55 PM58 °FOvercast.No wind94%30.10 "Hg10 mi
9:35 PM58 °FMostly cloudy.3 mph94%30.09 "Hg10 mi
9:15 PM58 °FMostly cloudy.No wind94%30.09 "Hg10 mi
8:55 PM58 °FMostly cloudy.3 mph94%30.08 "Hg10 mi
8:15 PM58 °FMostly cloudy.5 mph94%30.07 "Hg10 mi
7:55 PM58 °FOvercast.5 mph94%30.07 "Hg10 mi
7:35 PM59 °FLight rain. Mostly cloudy.5 mph94%30.05 "Hg10 mi
7:15 PM60 °FHeavy rain. Low clouds.8 mph94%30.05 "Hg7 mi
6:55 PM60 °FHeavy rain. Mostly cloudy.7 mph93%30.05 "Hg3 mi
6:35 PM61 °FMostly cloudy.8 mph92%30.03 "Hg10 mi
6:15 PM63 °FLight rain. Mostly cloudy.5 mph91%30.04 "Hg10 mi
5:55 PM63 °FMore clouds than sun.6 mph92%30.03 "Hg10 mi
5:15 PM64 °FThunderstorms. Cloudy.7 mph95%30.02 "Hg3 mi
4:55 PM64 °FRain. More clouds than sun.7 mph93%30.00 "Hg7 mi
4:35 PM65 °FThundershowers. Cloudy.No wind90%29.98 "Hg10 mi
4:15 PM65 °FMostly cloudy.5 mph85%29.99 "Hg10 mi
3:55 PM66 °FLight rain. Cloudy.3 mph84%30.00 "Hg10 mi
3:15 PM65 °FLight rain. More clouds than sun.3 mph88%30.01 "Hg10 mi
2:55 PM66 °FLight rain. Cloudy.9 mph86%30.00 "Hg10 mi
2:35 PM68 °FBroken clouds.9 mph80%29.99 "Hg10 mi
2:15 PM67 °FLight rain. Broken clouds.8 mph84%29.99 "Hg10 mi
1:55 PM64 °FLight rain. Cloudy.3 mph90%29.99 "Hg2 mi
1:15 PM71 °FBroken clouds.5 mph67%30.00 "Hg10 mi
12:55 PM72 °FBroken clouds.3 mph66%30.00 "Hg10 mi
12:35 PM71 °FMore clouds than sun.3 mph69%30.00 "Hg10 mi
12:15 PM70 °FCloudy.No wind72%30.00 "Hg7 mi
11:55 AM68 °FThundershowers. Partly sunny.3 mph73%30.01 "Hg10 mi
11:35 AM69 °FScattered clouds.No wind71%30.00 "Hg10 mi
11:15 AM68 °FMostly cloudy.6 mph73%30.01 "Hg10 mi
Weather by CustomWeather, © 2016

See weather overviewHow to use our weather pages